Regional Weather Roundup
Issued by NWS Upton, NY

Home | Current Version | Previous Version | Text Only | Print | Product List | Glossary On
Versions: 1 2 3 4 5 6 7 8 9 10 11 12 13 14 15 16 17 18 19 20 21 22 23 24 25 26 27 28 29 30 31 32 33 34 35 36 37 38 39 40 41 42 43 44 45 46 47 48 49 50
962
ASUS41 KOKX 250008
RWROKX

REGIONAL WEATHER ROUNDUP
NATIONAL WEATHER SERVICE NEW YORK NY
700 PM EST FRI NOV 24 2017

NOTE: "FAIR" INDICATES FEW OR NO CLOUDS BELOW 12,000 FEET WITH NO
SIGNIFICANT WEATHER AND/OR OBSTRUCTIONS TO VISIBILITY.

NYZ071-072-176-178-NJZ106-104-250100-
NEW YORK CITY METRO AREA

CITY           SKY/WX    TMP DP  RH WIND       PRES   REMARKS
Central Park   CLEAR     48  25  40 S6G17     29.99S
Bronx Bot Gard   N/A     45  28  53 S2        29.96S
Bronx Lehman C   N/A     48 N/A N/A SW3         N/A
LaGuardia APRT CLEAR     48  27  44 S6        29.97S
Queens College   N/A     46 N/A N/A SW9         N/A
Kennedy INTL   CLEAR     45  35  68 SW9       29.99S
Breezy Point     N/A     46 N/A N/A S9          N/A
Brooklyn Coll    N/A     46 N/A N/A S6          N/A
Staten Island    N/A     46 N/A N/A S6          N/A
Newark/Liberty CLEAR     44  27  51 S6        29.97S
Teterboro      CLEAR     44  28  53 CALM      29.96S
$$

NYZ177-179-078>081-250100-
LONG ISLAND NEW YORK

CITY           SKY/WX    TMP DP  RH WIND       PRES   REMARKS
Jones Beach      N/A     48 N/A N/A SW9G15      N/A
Wantagh          N/A     46 N/A N/A SW6         N/A
Matinecock PT    N/A     45 N/A N/A SW8         N/A
Farmingdale    CLEAR     43  32  65 SW3       29.98S
MacArthur/ISP  CLEAR     39  31  72 CALM      29.98S
Shirley        CLEAR     36  33  89 CALM      29.99S
Mt Sinai Harb    N/A    N/A N/A N/A S3          N/A
Westhampton    CLEAR     35  29  78 S3        30.00R
East Hampton   FAIR      43  34  71 SW3       29.99R
Southold         N/A     37 N/A N/A SW3         N/A
Montauk          N/A     48  38  68 VRB6      30.00R
$$

NYZ052-065-067-250100-
HUDSON VALLEY

CITY           SKY/WX    TMP DP  RH WIND       PRES   REMARKS
White Plains   CLEAR     39  29  67 CALM      29.96R
Larchmont Harb   N/A     46 N/A N/A S9          N/A
Croton On Huds   N/A     45 N/A N/A CALM        N/A
Somers           N/A     41 N/A N/A S3          N/A
Brewster         N/A     37 N/A N/A S1          N/A
Newburgh       CLEAR     45  25  45 SW7       29.94S
Montgomery     CLEAR     33  24  69 SW3       29.93R
Suffern          N/A     41 N/A N/A S2          N/A
Poughkeepsie   CLEAR     44  22  41 VRB5      29.93R
Albany         CLEAR     44  24  45 S10       29.87F
$$

NJZ001-105-106-008-010-013-015-019>022-104-250100-
NEW JERSEY

CITY           SKY/WX    TMP DP  RH WIND       PRES   REMARKS
Newark/Liberty CLEAR     44  27  51 S6        29.97S
Teterboro      CLEAR     44  28  53 CALM      29.96S
Caldwell       CLEAR     44  24  45 CALM      29.97S
Somerville     CLEAR     36  24  62 CALM      29.96R
Linden         FAIR      45  23  43 CALM      29.98S
Perth Amboy      N/A     45 N/A N/A S5          N/A
Sussex         CLEAR     33  25  72 CALM      29.94S
Andover          N/A     32  27  81 CALM      29.94F
Trenton        CLEAR     44  24  45 S3        29.97S
Millville      CLEAR     34  30  85 CALM      29.99S
Atlantic City  CLEAR     41  32  70 S5        30.00S
Wrightstown    CLEAR     38  30  73 S5        29.96S WCI  34
Toms River     CLEAR     36  32  85 CALM      30.00S
Belmar         CLEAR     41  31  67 CALM      29.99S
$$

PAZ047>061-062-071-250100-
EASTERN PENNSYLVANIA

CITY           SKY/WX    TMP DP  RH WIND       PRES   REMARKS
Philadelphia   CLEAR     46  30  53 S5        29.98F
Allentown      CLEAR     44  20  38 S5        29.95S
Scranton       CLEAR     45  21  38 VRB5      29.90R
$$

CTZ002-004>006-009-010-012-RIZ004-006-007-MAZ004-011-015-250100-
SOUTHERN NEW ENGLAND
 IN CT

CITY           SKY/WX    TMP DP  RH WIND       PRES   REMARKS
Bradley INTL   PTCLDY    41  26  55 S7        29.95R
Hartford       CLEAR     40  28  62 S7        29.96S
Danbury        CLEAR     42  26  53 S9        29.96S
Wtrbury/Oxford CLEAR     39  29  67 S7        29.95S WCI  34
Norwalk Harbor   N/A     45 N/A N/A S13         N/A
Bridgeport     CLEAR     46  33  60 SW13      29.97S
Meriden        CLEAR     35  30  82 CALM      29.97R
New Haven      CLEAR     47  33  58 SW10      29.98R
Chester        FAIR      41  32  70 SW7       29.96F
Groton         CLEAR     46  36  68 SW10      29.98S
Wilimantic     CLEAR     37  28  70 CALM      29.98R

 IN RI

CITY           SKY/WX    TMP DP  RH WIND       PRES   REMARKS
Providence     CLEAR     40  32  73 S3        29.99R
Block Island     N/A    N/A N/A N/A MISG        N/A
Westerly       CLEAR     48  38  68 SW9       29.99S
 IN MA

CITY           SKY/WX    TMP DP  RH WIND       PRES   REMARKS
Boston         CLEAR     43  32  65 S14       29.96R
Worcester      CLEAR     38  24  57 SW10      29.92R WCI  31
Westfield      CLEAR     41  26  55 S10       29.93R
Provincetown   CLEAR     45  36  70 SW13G20   29.99R
Nantucket      CLEAR     47  40  76 SW9       30.01R
$$

ANZ330-335-338-340-345-350-353-355-250100-
COASTAL MARINE OBSERVATIONS


STATION/POSITION TIME  SKY/WX   TEMP    WIND        PRES    VSBY  WAVE
                                AIR SEA DIR/SP/G                  HT/PER
                 (UTC)          (F)     (DEG/KT/KT) (MB)    (MI)  (FT/S)
NY HARB ENTRANCE 2250            50 55  210/ 14/ 16 1014.7          3/10
20 S FIRE ISLAND 2250            49 56  220/ 14/ 16 1015.7          4/10
GREAT SOUTH BAY  2315            46 44  220/  8/  8   N/A
HUDSON CANYON    2250            50 59  200/  6/  8 1016.0          4/10
KINGS POINT      2330            46 49  210/  7/  8 1015.7
EXECUTION ROCKS  2330            47     170/  6/  8   N/A
WESTERN LI SOUND 2249            47     190/ 10/ 14   N/A           0
CENTRAL LI SOUND NOT AVBL
ROBBINS REEF     2330            48     190/  9/ 11 1015.5
$$


>>>>>>>>>>>>>>>>>>>>>>>>>>>> KEY <<<<<<<<<<<<<<<<<<<<<<<<<<<
>                                                          <
>     SKY/WX - Sky Condition/Present Weather               <
>     TMP    - Temperature in Fahrenheit                   <
>     DP     - Dew Point in Fahrenheit                     <
>     RH     - Relative Humidity in Percent                <
>     WIND   - Direction (from) and Speed in MPH           <
>     PRES   - Mean Sea Level Pressure (inches of Hg)      <
>     WCI    - Wind Chill Index                            <
>     VSB    - VISIBILITY IN MILES                         <
>     HX     - HEAT INDEX                                  <
>     TC     - TEMPERATURE IN CELSIUS                      <
>     VRB    - VARIABLE WIND DIRECTION                     <
>                                                          <
>>>>>>>>>>>>>>>>>>>>>>>>>>>> KEY <<<<<<<<<<<<<<<<<<<<<<<<<<<




USA.gov is the U.S. government's official web portal to all federal, state and local government web resources and services.